Time,TemperatureF,DewpointF,PressureIn,WindDirection,WindDirectionDegrees,WindSpeedMPH,WindSpeedGustMPH,Humidity,HourlyPrecipIn,Conditions,Clouds,dailyrainin,SolarRadiationWatts/m^2,SoftwareType,DateUTC
2013-07-15 00:01:00,74.8,73.0,30.08,East,101,6.0,8.0,94,0.00,,CLR,0.00,0.00,VWS V14.01,2013-07-15 04:01:00,
2013-07-15 00:02:00,74.8,73.0,30.08,ENE,78,5.0,6.0,94,0.00,,CLR,0.00,0.00,VWS V14.01,2013-07-15 04:02:00,
2013-07-15 00:07:00,74.7,72.9,30.08,East,84,2.0,7.0,94,0.00,,CLR,0.00,0.00,VWS V14.01,2013-07-15 04:07:00,
2013-07-15 00:12:00,74.6,72.8,30.08,East,85,7.0,7.0,94,0.00,,CLR,0.00,0.00,VWS V14.01,2013-07-15 04:12:00,
2013-07-15 00:17:00,74.5,73.0,30.08,ENE,63,5.0,7.0,95,0.00,,CLR,0.00,0.00,VWS V14.01,2013-07-15 04:17:00,
2013-07-15 00:22:00,74.4,72.9,30.08,ENE,69,2.0,8.0,95,0.00,,CLR,0.00,0.00,VWS V14.01,2013-07-15 04:22:00,
2013-07-15 00:27:00,74.3,72.8,30.09,ENE,76,1.0,8.0,95,0.00,,CLR,0.00,0.00,VWS V14.01,2013-07-15 04:27:00,
2013-07-15 00:32:00,74.2,72.7,30.09,East,94,3.0,5.0,95,0.00,,CLR,0.00,0.00,VWS V14.01,2013-07-15 04:32:00,
2013-07-15 00:37:00,74.2,72.7,30.09,East,88,2.0,6.0,95,0.00,,CLR,0.00,0.00,VWS V14.01,2013-07-15 04:37:00,
2013-07-15 00:42:00,74.1,72.6,30.09,ENE,60,4.0,6.0,95,0.00,,CLR,0.00,0.00,VWS V14.01,2013-07-15 04:42:00,
2013-07-15 00:47:00,74.1,72.6,30.09,ENE,76,3.0,6.0,95,0.00,,CLR,0.00,0.00,VWS V14.01,2013-07-15 04:47:00,
2013-07-15 00:52:00,74.0,72.5,30.09,East,80,2.0,6.0,95,0.00,,CLR,0.00,0.00,VWS V14.01,2013-07-15 04:52:00,
2013-07-15 00:57:00,73.9,72.4,30.09,ENE,73,2.0,6.0,95,0.00,,CLR,0.00,0.00,VWS V14.01,2013-07-15 04:57:00,
2013-07-15 01:02:00,73.9,72.4,30.09,East,81,1.0,2.0,95,0.00,,CLR,0.00,0.00,VWS V14.01,2013-07-15 05:02:00,
2013-07-15 01:07:00,73.9,72.4,30.09,East,98,2.0,3.0,95,0.00,,CLR,0.00,0.00,VWS V14.01,2013-07-15 05:07:00,
2013-07-15 01:12:00,73.9,72.4,30.09,ESE,123,1.0,5.0,95,0.00,,CLR,0.00,0.00,VWS V14.01,2013-07-15 05:12:00,
2013-07-15 01:17:00,73.7,72.2,30.09,ENE,78,2.0,6.0,95,0.00,,CLR,0.00,0.00,VWS V14.01,2013-07-15 05:17:00,
2013-07-15 01:22:00,73.5,72.0,30.09,East,79,3.0,6.0,95,0.00,,CLR,0.00,0.00,VWS V14.01,2013-07-15 05:22:00,
2013-07-15 01:27:00,73.5,72.0,30.09,ESE,105,2.0,6.0,95,0.00,,CLR,0.00,0.00,VWS V14.01,2013-07-15 05:27:00,
2013-07-15 01:32:00,73.4,71.9,30.09,ENE,57,2.0,7.0,95,0.00,,CLR,0.00,0.00,VWS V14.01,2013-07-15 05:32:00,
2013-07-15 01:37:00,73.4,71.9,30.09,East,79,7.0,7.0,95,0.00,,CLR,0.00,0.00,VWS V14.01,2013-07-15 05:37:00,
2013-07-15 01:42:00,73.5,72.0,30.09,East,95,3.0,7.0,95,0.00,,CLR,0.00,0.00,VWS V14.01,2013-07-15 05:42:00,
2013-07-15 01:47:00,73.6,71.8,30.09,ESE,112,2.0,7.0,94,0.00,,CLR,0.00,0.00,VWS V14.01,2013-07-15 05:47:00,
2013-07-15 01:52:00,73.5,71.7,30.09,ENE,74,2.0,7.0,94,0.00,,CLR,0.00,0.00,VWS V14.01,2013-07-15 05:52:00,
2013-07-15 01:57:00,73.5,71.7,30.09,ESE,113,4.0,7.0,94,0.00,,CLR,0.00,0.00,VWS V14.01,2013-07-15 05:57:00,
2013-07-15 02:02:00,73.4,71.6,30.09,ENE,77,3.0,5.0,94,0.00,,CLR,0.00,0.00,VWS V14.01,2013-07-15 06:02:00,
2013-07-15 02:07:00,73.4,71.6,30.09,ENE,57,3.0,6.0,94,0.00,,CLR,0.00,0.00,VWS V14.01,2013-07-15 06:07:00,
2013-07-15 02:12:00,73.4,71.6,30.09,East,85,3.0,6.0,94,0.00,,CLR,0.00,0.00,VWS V14.01,2013-07-15 06:12:00,
2013-07-15 02:17:00,73.4,71.6,30.09,ENE,74,1.0,6.0,94,0.00,,CLR,0.00,0.00,VWS V14.01,2013-07-15 06:17:00,
2013-07-15 02:22:00,73.4,71.6,30.09,ESE,103,4.0,6.0,94,0.00,,CLR,0.00,0.00,VWS V14.01,2013-07-15 06:22:00,
2013-07-15 02:27:00,73.6,72.1,30.09,ESE,107,3.0,6.0,95,0.00,,CLR,0.00,0.00,VWS V14.01,2013-07-15 06:27:00,
2013-07-15 02:32:00,73.7,72.2,30.10,East,98,2.0,5.0,95,0.00,,CLR,0.00,0.00,VWS V14.01,2013-07-15 06:32:00,
2013-07-15 02:38:00,73.8,72.3,30.10,ESE,104,2.0,5.0,95,0.00,,BKN016,0.00,0.00,VWS V14.01,2013-07-15 06:38:00,
2013-07-15 02:43:00,73.8,72.3,30.10,East,98,3.0,5.0,95,0.00,,BKN016,0.00,0.00,VWS V14.01,2013-07-15 06:43:00,
2013-07-15 02:48:00,73.8,72.3,30.10,East,87,3.0,5.0,95,0.00,,BKN016,0.00,0.00,VWS V14.01,2013-07-15 06:48:00,
2013-07-15 02:53:00,73.7,71.9,30.10,ESE,119,1.0,5.0,94,0.00,,BKN016,0.00,0.00,VWS V14.01,2013-07-15 06:53:00,
2013-07-15 02:58:00,73.7,72.2,30.09,ESE,103,2.0,5.0,95,0.00,,OVC016,0.00,0.00,VWS V14.01,2013-07-15 06:58:00,
2013-07-15 03:03:00,73.6,72.1,30.09,East,83,3.0,5.0,95,0.00,,OVC016,0.00,0.00,VWS V14.01,2013-07-15 07:03:00,
2013-07-15 03:08:00,73.5,71.7,30.09,East,86,3.0,5.0,94,0.00,,OVC016,0.00,0.00,VWS V14.01,2013-07-15 07:08:00,
2013-07-15 03:13:00,73.4,71.6,30.09,East,79,2.0,5.0,94,0.00,,OVC016,0.00,0.00,VWS V14.01,2013-07-15 07:13:00,
2013-07-15 03:18:00,73.4,71.9,30.09,ENE,62,2.0,5.0,95,0.00,,OVC014,0.00,0.00,VWS V14.01,2013-07-15 07:18:00,
2013-07-15 03:23:00,73.4,71.9,30.09,East,86,2.0,6.0,95,0.00,,OVC014,0.00,0.00,VWS V14.01,2013-07-15 07:23:00,
2013-07-15 03:28:00,73.4,71.9,30.09,ENE,74,4.0,6.0,95,0.00,,OVC014,0.00,0.00,VWS V14.01,2013-07-15 07:28:00,
2013-07-15 03:33:00,73.3,71.8,30.09,East,81,2.0,3.0,95,0.00,,OVC014,0.00,0.00,VWS V14.01,2013-07-15 07:33:00,
2013-07-15 03:38:00,73.2,71.7,30.09,East,85,3.0,5.0,95,0.00,,OVC018,0.00,0.00,VWS V14.01,2013-07-15 07:38:00,
2013-07-15 03:43:00,73.1,71.6,30.09,East,94,0.0,5.0,95,0.00,,OVC018,0.00,0.00,VWS V14.01,2013-07-15 07:43:00,
2013-07-15 03:48:00,73.1,71.6,30.09,ENE,71,2.0,5.0,95,0.00,,OVC018,0.00,0.00,VWS V14.01,2013-07-15 07:48:00,
2013-07-15 03:53:00,73.0,71.5,30.09,ENE,78,1.0,5.0,95,0.00,,OVC018,0.00,0.00,VWS V14.01,2013-07-15 07:53:00,
2013-07-15 03:58:00,72.9,71.4,30.09,East,88,2.0,5.0,95,0.00,,OVC018,0.00,0.00,VWS V14.01,2013-07-15 07:58:00,
2013-07-15 04:03:00,72.8,71.3,30.09,ENE,67,2.0,3.0,95,0.00,,OVC015,0.00,0.00,VWS V14.01,2013-07-15 08:03:00,
2013-07-15 04:08:00,72.8,71.3,30.09,ENE,69,2.0,4.0,95,0.00,,OVC015,0.00,0.00,VWS V14.01,2013-07-15 08:08:00,
2013-07-15 04:13:00,72.8,71.3,30.09,ENE,65,1.0,4.0,95,0.00,,OVC015,0.00,0.00,VWS V14.01,2013-07-15 08:13:00,
2013-07-15 04:18:00,72.7,71.2,30.09,ENE,69,1.0,4.0,95,0.00,,BKN015,0.00,0.00,VWS V14.01,2013-07-15 08:18:00,
2013-07-15 04:23:00,72.6,71.1,30.09,ENE,72,1.0,4.0,95,0.00,,BKN015,0.00,0.00,VWS V14.01,2013-07-15 08:23:00,
2013-07-15 04:28:00,72.5,71.3,30.09,East,82,1.0,4.0,96,0.00,,BKN015,0.00,0.00,VWS V14.01,2013-07-15 08:28:00,
2013-07-15 04:33:00,72.4,71.2,30.09,ENE,69,2.0,3.0,96,0.00,,BKN015,0.00,0.00,VWS V14.01,2013-07-15 08:33:00,
2013-07-15 04:38:00,72.4,71.2,30.09,ENE,74,3.0,3.0,96,0.00,,OVC013,0.00,0.00,VWS V14.01,2013-07-15 08:38:00,
2013-07-15 04:43:00,72.3,71.1,30.09,ENE,76,2.0,3.0,96,0.00,,OVC013,0.00,0.00,VWS V14.01,2013-07-15 08:43:00,
2013-07-15 04:48:00,72.3,71.1,30.09,NE,47,0.0,3.0,96,0.00,,OVC013,0.00,0.00,VWS V14.01,2013-07-15 08:48:00,
2013-07-15 04:53:00,72.2,71.0,30.09,ENE,61,0.0,3.0,96,0.00,,OVC013,0.00,0.00,VWS V14.01,2013-07-15 08:53:00,
2013-07-15 04:58:00,72.2,71.0,30.09,ENE,63,0.0,3.0,96,0.00,,BKN013,0.00,0.00,VWS V14.01,2013-07-15 08:58:00,
2013-07-15 05:03:00,72.1,70.9,30.09,ENE,63,1.0,1.0,96,0.00,,BKN013,0.00,0.00,VWS V14.01,2013-07-15 09:03:00,
2013-07-15 05:08:00,72.0,70.8,30.09,ENE,63,0.0,1.0,96,0.00,,BKN013,0.00,0.00,VWS V14.01,2013-07-15 09:08:00,
2013-07-15 05:13:00,71.8,70.6,30.09,ENE,63,0.0,1.0,96,0.00,,BKN013,0.00,0.00,VWS V14.01,2013-07-15 09:13:00,
2013-07-15 05:18:00,71.6,70.4,30.09,ENE,63,0.0,1.0,96,0.00,,BKN007,0.00,0.00,VWS V14.01,2013-07-15 09:18:00,
2013-07-15 05:23:00,71.6,70.4,30.09,ENE,63,0.0,1.0,96,0.00,,BKN007,0.00,0.00,VWS V14.01,2013-07-15 09:23:00,
2013-07-15 05:28:00,71.4,70.2,30.08,ENE,63,0.0,1.0,96,0.00,,BKN007,0.00,0.00,VWS V14.01,2013-07-15 09:28:00,
2013-07-15 05:33:00,71.4,70.5,30.09,ENE,63,0.0,0.0,97,0.00,,BKN007,0.00,0.00,VWS V14.01,2013-07-15 09:33:00,
2013-07-15 05:38:00,71.3,70.4,30.09,ENE,63,0.0,0.0,97,0.00,,BKN007,0.00,0.00,VWS V14.01,2013-07-15 09:38:00,
2013-07-15 05:43:00,71.2,70.3,30.09,ENE,63,3.0,3.0,97,0.00,,OVC007,0.00,0.00,VWS V14.01,2013-07-15 09:43:00,
2013-07-15 05:48:00,71.2,70.3,30.09,NE,40,3.0,4.0,97,0.00,,OVC007,0.00,0.00,VWS V14.01,2013-07-15 09:48:00,
2013-07-15 05:53:00,71.1,70.2,30.09,NE,38,1.0,4.0,97,0.00,,OVC007,0.00,0.00,VWS V14.01,2013-07-15 09:53:00,
2013-07-15 05:58:00,71.2,70.3,30.10,NE,40,1.0,4.0,97,0.00,,OVC007,0.00,0.00,VWS V14.01,2013-07-15 09:58:00,
2013-07-15 06:03:00,71.2,70.3,30.10,NE,39,2.0,2.0,97,0.00,,SCT007,0.00,0.00,VWS V14.01,2013-07-15 10:03:00,
2013-07-15 06:08:00,71.1,70.2,30.10,NE,43,1.0,3.0,97,0.00,,SCT007,0.00,0.00,VWS V14.01,2013-07-15 10:08:00,
2013-07-15 06:13:00,71.2,70.3,30.09,NE,38,1.0,3.0,97,0.00,,SCT007,0.00,0.00,VWS V14.01,2013-07-15 10:13:00,
2013-07-15 06:18:00,71.1,70.2,30.10,NE,41,2.0,3.0,97,0.00,,CLR,0.00,0.00,VWS V14.01,2013-07-15 10:18:00,
2013-07-15 06:23:00,71.0,70.1,30.09,NNE,30,2.0,3.0,97,0.00,,CLR,0.00,0.00,VWS V14.01,2013-07-15 10:23:00,
2013-07-15 06:28:00,71.0,70.1,30.10,NNE,30,3.0,4.0,97,0.00,,CLR,0.00,0.00,VWS V14.01,2013-07-15 10:28:00,
2013-07-15 06:33:00,70.8,69.9,30.10,NNE,30,2.0,3.0,97,0.00,,CLR,0.00,0.00,VWS V14.01,2013-07-15 10:33:00,
2013-07-15 06:38:00,70.9,70.0,30.10,North,355,1.0,3.0,97,0.00,,CLR,0.00,0.00,VWS V14.01,2013-07-15 10:38:00,
2013-07-15 06:43:00,70.8,69.9,30.10,NE,39,2.0,3.0,97,0.00,,CLR,0.00,0.00,VWS V14.01,2013-07-15 10:43:00,
2013-07-15 06:48:00,70.8,69.9,30.10,NNE,32,1.0,4.0,97,0.00,,CLR,0.00,5.00,VWS V14.01,2013-07-15 10:48:00,
2013-07-15 06:53:00,70.9,70.0,30.10,NNE,26,2.0,4.0,97,0.00,,CLR,0.00,7.00,VWS V14.01,2013-07-15 10:53:00,
2013-07-15 06:58:00,70.8,69.9,30.10,NNE,26,0.0,4.0,97,0.00,,FEW030,0.00,11.00,VWS V14.01,2013-07-15 10:58:00,
2013-07-15 07:03:00,70.9,70.0,30.10,NNE,26,0.0,0.0,97,0.00,,FEW030,0.00,11.00,VWS V14.01,2013-07-15 11:03:00,
2013-07-15 07:08:00,71.0,70.1,30.10,NNE,26,0.0,0.0,97,0.00,,FEW030,0.00,18.00,VWS V14.01,2013-07-15 11:08:00,
2013-07-15 07:13:00,71.0,70.1,30.10,NNE,26,0.0,0.0,97,0.00,,FEW030,0.00,25.00,VWS V14.01,2013-07-15 11:13:00,
2013-07-15 07:18:00,71.0,70.4,30.10,NNE,26,0.0,0.0,98,0.00,,FEW030,0.00,40.00,VWS V14.01,2013-07-15 11:18:00,
2013-07-15 07:23:00,71.3,70.7,30.10,NNE,26,0.0,1.0,98,0.00,,FEW030,0.00,51.00,VWS V14.01,2013-07-15 11:23:00,
2013-07-15 07:28:00,71.5,70.9,30.10,NNE,26,3.0,3.0,98,0.00,,FEW030,0.00,62.00,VWS V14.01,2013-07-15 11:28:00,
2013-07-15 07:33:00,71.7,71.1,30.10,NNE,24,1.0,3.0,98,0.00,,FEW030,0.00,74.00,VWS V14.01,2013-07-15 11:33:00,
2013-07-15 07:38:00,71.9,71.3,30.10,NE,38,1.0,4.0,98,0.00,,FEW030,0.00,83.00,VWS V14.01,2013-07-15 11:38:00,
2013-07-15 07:43:00,72.0,71.4,30.10,NE,37,1.0,4.0,98,0.00,,FEW030,0.00,91.00,VWS V14.01,2013-07-15 11:43:00,
2013-07-15 07:48:00,72.3,71.7,30.10,North,355,1.0,4.0,98,0.00,,FEW030,0.00,102.00,VWS V14.01,2013-07-15 11:48:00,
2013-07-15 07:54:00,72.8,72.2,30.11,NNE,15,1.0,4.0,98,0.00,,FEW030,0.00,121.00,VWS V14.01,2013-07-15 11:54:00,
2013-07-15 07:58:00,73.0,72.4,30.11,NNE,16,1.0,4.0,98,0.00,,FEW030,0.00,141.00,VWS V14.01,2013-07-15 11:58:00,
2013-07-15 08:03:00,73.5,72.6,30.11,North,360,4.0,4.0,97,0.00,,FEW030,0.00,160.00,VWS V14.01,2013-07-15 12:03:00,
2013-07-15 08:09:00,74.0,73.1,30.11,NNE,30,2.0,5.0,97,0.00,,FEW030,0.00,176.00,VWS V14.01,2013-07-15 12:09:00,
2013-07-15 08:14:00,74.5,73.6,30.11,NNE,20,4.0,5.0,97,0.00,,FEW030,0.00,178.00,VWS V14.01,2013-07-15 12:14:00,
2013-07-15 08:19:00,74.9,73.7,30.11,NNE,30,4.0,5.0,96,0.00,,FEW030,0.00,186.00,VWS V14.01,2013-07-15 12:19:00,
2013-07-15 08:24:00,75.2,74.0,30.11,NNE,21,4.0,5.0,96,0.00,,FEW030,0.00,179.00,VWS V14.01,2013-07-15 12:24:00,
2013-07-15 08:29:00,75.7,74.2,30.11,NNE,24,6.0,6.0,95,0.00,,FEW030,0.00,209.00,VWS V14.01,2013-07-15 12:29:00,
2013-07-15 08:34:00,76.0,74.2,30.11,NE,36,3.0,5.0,94,0.00,,FEW030,0.00,239.00,VWS V14.01,2013-07-15 12:34:00,
2013-07-15 08:39:00,76.1,73.9,30.12,ENE,76,5.0,6.0,93,0.00,,FEW030,0.00,255.00,VWS V14.01,2013-07-15 12:39:00,
2013-07-15 08:44:00,76.4,74.2,30.12,NNE,16,2.0,6.0,93,0.00,,FEW030,0.00,269.00,VWS V14.01,2013-07-15 12:44:00,
2013-07-15 08:49:00,76.8,74.6,30.12,NE,51,3.0,6.0,93,0.00,,FEW030,0.00,283.00,VWS V14.01,2013-07-15 12:49:00,
2013-07-15 08:54:00,76.9,74.1,30.12,NNE,19,2.0,6.0,91,0.00,,FEW030,0.00,294.00,VWS V14.01,2013-07-15 12:54:00,
2013-07-15 08:59:00,77.3,74.5,30.12,North,11,5.0,6.0,91,0.00,,CLR,0.00,313.00,VWS V14.01,2013-07-15 12:59:00,
2013-07-15 09:04:00,77.6,74.4,30.12,NNE,28,6.0,6.0,90,0.00,,CLR,0.00,329.00,VWS V14.01,2013-07-15 13:04:00,
2013-07-15 09:09:00,78.0,74.8,30.12,North,11,6.0,8.0,90,0.00,,CLR,0.00,359.00,VWS V14.01,2013-07-15 13:09:00,
2013-07-15 09:14:00,78.1,74.6,30.12,NNE,22,3.0,8.0,89,0.00,,CLR,0.00,369.00,VWS V14.01,2013-07-15 13:14:00,
2013-07-15 09:19:00,78.6,75.1,30.12,NE,48,3.0,8.0,89,0.00,,CLR,0.00,388.00,VWS V14.01,2013-07-15 13:19:00,
2013-07-15 09:24:00,78.9,74.7,30.12,North,11,6.0,8.0,87,0.00,,CLR,0.00,410.00,VWS V14.01,2013-07-15 13:24:00,
2013-07-15 09:29:00,78.9,74.7,30.12,NE,35,5.0,8.0,87,0.00,,CLR,0.00,431.00,VWS V14.01,2013-07-15 13:29:00,
2013-07-15 09:34:00,79.4,74.8,30.12,NNE,33,4.0,7.0,86,0.00,,CLR,0.00,452.00,VWS V14.01,2013-07-15 13:34:00,
2013-07-15 09:39:00,79.6,74.7,30.12,NE,50,3.0,8.0,85,0.00,,CLR,0.00,473.00,VWS V14.01,2013-07-15 13:39:00,
2013-07-15 09:44:00,79.7,74.4,30.12,ENE,71,4.0,8.0,84,0.00,,CLR,0.00,494.00,VWS V14.01,2013-07-15 13:44:00,
2013-07-15 09:49:00,80.0,75.1,30.12,NE,34,6.0,8.0,85,0.00,,CLR,0.00,526.00,VWS V14.01,2013-07-15 13:49:00,
2013-07-15 09:54:00,80.8,75.5,30.12,ENE,66,3.0,8.0,84,0.00,,CLR,0.00,538.00,VWS V14.01,2013-07-15 13:54:00,
2013-07-15 09:59:00,80.7,75.1,30.12,NE,44,3.0,8.0,83,0.00,,CLR,0.00,559.00,VWS V14.01,2013-07-15 13:59:00,
2013-07-15 10:04:00,80.8,74.4,30.12,ENE,70,4.0,9.0,81,0.00,,SCT015,0.00,580.00,VWS V14.01,2013-07-15 14:04:00,
2013-07-15 10:09:00,81.2,74.8,30.12,NNE,22,3.0,9.0,81,0.00,,SCT015,0.00,599.00,VWS V14.01,2013-07-15 14:09:00,
2013-07-15 10:14:00,81.3,74.2,30.13,NNE,30,3.0,10.0,79,0.00,,SCT015,0.00,613.00,VWS V14.01,2013-07-15 14:14:00,
2013-07-15 10:19:00,81.3,74.2,30.13,NE,49,5.0,10.0,79,0.00,,SCT015,0.00,629.00,VWS V14.01,2013-07-15 14:19:00,
2013-07-15 10:24:00,81.5,74.0,30.13,NNE,25,2.0,10.0,78,0.00,,SCT015,0.00,645.00,VWS V14.01,2013-07-15 14:24:00,
2013-07-15 10:29:00,82.0,74.8,30.13,East,101,2.0,10.0,79,0.00,,SCT015,0.00,656.00,VWS V14.01,2013-07-15 14:29:00,
2013-07-15 10:34:00,82.5,74.9,30.13,East,79,5.0,7.0,78,0.00,,SCT015,0.00,675.00,VWS V14.01,2013-07-15 14:34:00,
2013-07-15 10:39:00,82.1,73.8,30.13,East,88,5.0,8.0,76,0.00,,SCT015,0.00,691.00,VWS V14.01,2013-07-15 14:39:00,
2013-07-15 10:44:00,82.4,74.5,30.13,North,351,5.0,8.0,77,0.00,,SCT015,0.00,728.00,VWS V14.01,2013-07-15 14:44:00,
2013-07-15 10:49:00,83.0,73.9,30.13,ESE,106,4.0,9.0,74,0.00,,SCT015,0.00,722.00,VWS V14.01,2013-07-15 14:49:00,
2013-07-15 10:55:00,82.4,73.7,30.13,North,355,4.0,9.0,75,0.00,,SCT015,0.00,756.00,VWS V14.01,2013-07-15 14:55:00,
2013-07-15 11:00:00,83.4,74.2,30.13,ENE,60,4.0,9.0,74,0.00,,SCT021,0.00,751.00,VWS V14.01,2013-07-15 15:00:00,
2013-07-15 11:05:00,83.6,75.2,30.13,NNE,16,1.0,8.0,76,0.00,,SCT021,0.00,782.00,VWS V14.01,2013-07-15 15:05:00,
2013-07-15 11:10:00,83.8,74.2,30.13,North,5,6.0,8.0,73,0.00,,SCT021,0.00,707.00,VWS V14.01,2013-07-15 15:10:00,
2013-07-15 11:15:00,84.0,75.6,30.12,NNE,19,3.0,8.0,76,0.00,,SCT021,0.00,838.00,VWS V14.01,2013-07-15 15:15:00,
2013-07-15 11:21:00,84.5,75.7,30.12,NE,45,3.0,8.0,75,0.00,,SCT021,0.00,874.00,VWS V14.01,2013-07-15 15:21:00,
2013-07-15 11:26:00,83.8,74.6,30.12,NNE,32,4.0,8.0,74,0.00,,SCT021,0.00,958.00,VWS V14.01,2013-07-15 15:26:00,
2013-07-15 11:31:00,84.7,75.9,30.12,NNE,21,5.0,7.0,75,0.00,,SCT021,0.00,963.00,VWS V14.01,2013-07-15 15:31:00,
2013-07-15 11:36:00,85.0,75.0,30.12,NNE,16,4.0,8.0,72,0.00,,SCT021,0.00,1055.00,VWS V14.01,2013-07-15 15:36:00,
2013-07-15 11:41:00,85.6,76.0,30.12,East,94,3.0,8.0,73,0.00,,SCT021,0.00,1053.00,VWS V14.01,2013-07-15 15:41:00,
2013-07-15 11:46:00,84.3,75.5,30.12,NNE,16,5.0,8.0,75,0.00,,SCT021,0.00,360.00,VWS V14.01,2013-07-15 15:46:00,
2013-07-15 11:51:00,85.5,75.4,30.11,NNW,341,6.0,11.0,72,0.00,,SCT021,0.00,960.00,VWS V14.01,2013-07-15 15:51:00,
2013-07-15 11:56:00,85.5,75.4,30.11,NNW,345,7.0,11.0,72,0.00,,SCT021,0.00,967.00,VWS V14.01,2013-07-15 15:56:00,
2013-07-15 12:02:00,85.8,76.6,30.11,North,5,7.0,8.0,74,0.00,,BKN029,0.00,974.00,VWS V14.01,2013-07-15 16:02:00,
2013-07-15 12:07:00,86.3,76.2,30.11,North,360,1.0,8.0,72,0.00,,BKN029,0.00,965.00,VWS V14.01,2013-07-15 16:07:00,
2013-07-15 12:12:00,85.6,74.7,30.11,NNE,14,2.0,10.0,70,0.00,,BKN029,0.00,1020.00,VWS V14.01,2013-07-15 16:12:00,
2013-07-15 12:17:00,84.7,74.7,30.11,NE,38,4.0,10.0,72,0.00,,BKN029,0.00,299.00,VWS V14.01,2013-07-15 16:17:00,
2013-07-15 12:22:00,84.6,75.0,30.10,East,84,3.0,10.0,73,0.00,,BKN029,0.00,327.00,VWS V14.01,2013-07-15 16:22:00,
2013-07-15 12:27:00,84.1,74.9,30.10,ENE,63,3.0,10.0,74,0.00,,BKN029,0.00,353.00,VWS V14.01,2013-07-15 16:27:00,
2013-07-15 12:32:00,85.5,75.9,30.10,North,360,6.0,8.0,73,0.00,,BKN029,0.00,225.00,VWS V14.01,2013-07-15 16:32:00,
2013-07-15 12:37:00,84.9,74.9,30.10,NNE,22,11.0,11.0,72,0.00,,BKN029,0.00,225.00,VWS V14.01,2013-07-15 16:37:00,
2013-07-15 12:42:00,84.7,74.7,30.10,NNE,22,2.0,12.0,72,0.00,,BKN029,0.00,330.00,VWS V14.01,2013-07-15 16:42:00,
2013-07-15 12:49:00,86.2,75.7,30.09,North,5,2.0,12.0,71,0.00,,BKN029,0.00,1127.00,VWS V14.01,2013-07-15 16:49:00,
2013-07-15 12:54:00,87.4,76.4,30.09,NNE,29,5.0,12.0,70,0.00,,BKN029,0.00,1025.00,VWS V14.01,2013-07-15 16:54:00,
2013-07-15 12:59:00,86.9,76.8,30.09,NE,42,2.0,12.0,72,0.00,,BKN030,0.00,728.00,VWS V14.01,2013-07-15 16:59:00,
2013-07-15 13:04:00,86.6,74.3,30.09,NNW,348,6.0,8.0,67,0.00,,BKN030,0.00,895.00,VWS V14.01,2013-07-15 17:04:00,
2013-07-15 13:09:00,86.4,75.0,30.08,NNE,17,4.0,8.0,69,0.00,,BKN030,0.00,197.00,VWS V14.01,2013-07-15 17:09:00,
2013-07-15 13:14:00,85.6,74.7,30.09,NNE,33,6.0,8.0,70,0.00,,BKN030,0.00,60.00,VWS V14.01,2013-07-15 17:14:00,
2013-07-15 13:19:00,83.4,75.1,30.10,NE,56,12.0,27.0,76,0.08,,BKN030,0.08,12.00,VWS V14.01,2013-07-15 17:19:00,
2013-07-15 13:25:00,78.0,72.8,30.12,NNE,26,16.0,27.0,84,0.34,,BKN030,0.34,12.00,VWS V14.01,2013-07-15 17:25:00,
2013-07-15 13:30:00,76.0,72.2,30.11,NNE,15,13.0,27.0,88,0.54,,BKN030,0.54,23.00,VWS V14.01,2013-07-15 17:30:00,
2013-07-15 13:35:00,74.8,72.0,30.11,NNE,15,9.0,13.0,91,0.63,,BKN030,0.63,33.00,VWS V14.01,2013-07-15 17:35:00,
2013-07-15 13:40:00,74.5,72.0,30.11,NNE,23,2.0,13.0,92,0.66,,BKN030,0.66,42.00,VWS V14.01,2013-07-15 17:40:00,
2013-07-15 13:45:00,74.6,72.4,30.11,South,178,0.0,13.0,93,0.66,,BKN030,0.66,51.00,VWS V14.01,2013-07-15 17:45:00,
2013-07-15 13:50:00,74.4,72.2,30.11,South,178,0.0,13.0,93,0.66,,BKN030,0.66,56.00,VWS V14.01,2013-07-15 17:50:00,
2013-07-15 13:56:00,74.6,72.8,30.10,NNE,17,2.0,13.0,94,0.67,,BKN030,0.67,60.00,VWS V14.01,2013-07-15 17:56:00,
2013-07-15 14:00:00,74.9,73.1,30.10,NNE,22,5.0,13.0,94,0.67,,BKN008,0.67,63.00,VWS V14.01,2013-07-15 18:00:00,
2013-07-15 14:06:00,75.0,73.2,30.09,NE,38,5.0,8.0,94,0.67,,BKN008,0.67,65.00,VWS V14.01,2013-07-15 18:06:00,
2013-07-15 14:11:00,75.0,73.2,30.10,NNE,25,4.0,8.0,94,0.67,,BKN008,0.67,67.00,VWS V14.01,2013-07-15 18:11:00,
2013-07-15 14:16:00,75.5,73.7,30.11,NW,306,3.0,8.0,94,0.67,,BKN008,0.67,69.00,VWS V14.01,2013-07-15 18:16:00,
2013-07-15 14:22:00,75.6,73.8,30.10,NW,319,2.0,8.0,94,0.67,,BKN008,0.67,67.00,VWS V14.01,2013-07-15 18:22:00,
2013-07-15 14:27:00,75.6,73.8,30.10,NW,314,1.0,8.0,94,0.67,,,0.67,46.00,VWS V14.01,2013-07-15 18:27:00,
2013-07-15 14:32:00,75.5,73.7,30.10,NW,319,3.0,4.0,94,0.09,,,0.67,56.00,VWS V14.01,2013-07-15 18:32:00,
2013-07-15 14:37:00,75.6,73.8,30.10,NW,320,1.0,4.0,94,0.09,,,0.67,53.00,VWS V14.01,2013-07-15 18:37:00,
2013-07-15 14:42:00,75.7,74.2,30.09,NNW,346,4.0,4.0,95,0.09,,,0.67,54.00,VWS V14.01,2013-07-15 18:42:00,
2013-07-15 14:48:00,75.8,74.3,30.09,North,5,1.0,4.0,95,0.09,,,0.67,54.00,VWS V14.01,2013-07-15 18:48:00,
2013-07-15 14:53:00,76.1,74.6,30.09,NNW,344,2.0,4.0,95,0.09,,,0.67,56.00,VWS V14.01,2013-07-15 18:53:00,
2013-07-15 14:58:00,76.3,74.8,30.09,North,355,2.0,4.0,95,0.09,,,0.67,62.00,VWS V14.01,2013-07-15 18:58:00,
2013-07-15 15:03:00,76.4,74.9,30.09,NNW,337,3.0,4.0,95,0.00,,BKN100,0.67,74.00,VWS V14.01,2013-07-15 19:03:00,
2013-07-15 15:08:00,76.4,74.9,30.09,NNW,336,5.0,5.0,95,0.00,,BKN100,0.67,86.00,VWS V14.01,2013-07-15 19:08:00,
2013-07-15 15:13:00,76.7,75.2,30.09,North,355,5.0,5.0,95,0.00,,BKN100,0.67,111.00,VWS V14.01,2013-07-15 19:13:00,
2013-07-15 15:18:00,76.8,75.3,30.09,SSW,211,3.0,5.0,95,0.00,,BKN100,0.67,130.00,VWS V14.01,2013-07-15 19:18:00,
2013-07-15 15:24:00,77.1,75.6,30.09,NNW,331,2.0,5.0,95,0.00,,BKN100,0.67,146.00,VWS V14.01,2013-07-15 19:24:00,
2013-07-15 15:29:00,77.0,75.5,30.09,NW,319,0.0,5.0,95,0.00,,BKN100,0.67,162.00,VWS V14.01,2013-07-15 19:29:00,
2013-07-15 15:34:00,77.0,75.5,30.09,North,351,4.0,6.0,95,0.00,,BKN100,0.67,185.00,VWS V14.01,2013-07-15 19:34:00,
2013-07-15 15:39:00,77.0,75.5,30.08,North,5,5.0,8.0,95,0.00,,BKN100,0.67,213.00,VWS V14.01,2013-07-15 19:39:00,
2013-07-15 15:45:00,77.2,75.7,30.07,North,355,6.0,8.0,95,0.00,,BKN100,0.67,239.00,VWS V14.01,2013-07-15 19:45:00,
2013-07-15 15:50:00,77.4,75.9,30.07,North,355,9.0,9.0,95,0.00,,BKN100,0.67,265.00,VWS V14.01,2013-07-15 19:50:00,
2013-07-15 15:55:00,77.9,76.4,30.06,NNW,342,2.0,9.0,95,0.00,,BKN100,0.67,287.00,VWS V14.01,2013-07-15 19:55:00,
2013-07-15 16:01:00,78.1,76.2,30.06,North,355,8.0,10.0,94,0.00,,BKN120,0.67,304.00,VWS V14.01,2013-07-15 20:01:00,
2013-07-15 16:06:00,78.6,76.7,30.05,NNE,19,11.0,12.0,94,0.00,,BKN120,0.67,320.00,VWS V14.01,2013-07-15 20:06:00,
2013-07-15 16:11:00,78.7,76.2,30.05,NNE,26,8.0,15.0,92,0.00,,BKN120,0.67,330.00,VWS V14.01,2013-07-15 20:11:00,
2013-07-15 16:16:00,79.0,76.5,30.05,NE,35,4.0,15.0,92,0.00,,BKN120,0.67,341.00,VWS V14.01,2013-07-15 20:16:00,
2013-07-15 16:22:00,79.4,76.6,30.05,NNE,18,4.0,15.0,91,0.00,,BKN120,0.67,339.00,VWS V14.01,2013-07-15 20:22:00,
2013-07-15 16:27:00,79.8,76.6,30.05,North,360,11.0,15.0,90,0.00,,BKN120,0.67,332.00,VWS V14.01,2013-07-15 20:27:00,
2013-07-15 16:32:00,80.2,76.7,30.05,NNE,17,4.0,5.0,89,0.00,,BKN120,0.67,308.00,VWS V14.01,2013-07-15 20:32:00,
2013-07-15 16:37:00,80.1,76.2,30.05,ENE,58,7.0,10.0,88,0.00,,BKN120,0.67,313.00,VWS V14.01,2013-07-15 20:37:00,
2013-07-15 16:42:00,80.3,76.4,30.05,NNE,25,7.0,10.0,88,0.00,,BKN120,0.67,376.00,VWS V14.01,2013-07-15 20:42:00,
2013-07-15 16:48:00,80.8,76.6,30.05,NNE,30,6.0,10.0,87,0.00,,BKN120,0.67,315.00,VWS V14.01,2013-07-15 20:48:00,
2013-07-15 16:53:00,80.5,75.9,30.05,NNE,21,5.0,10.0,86,0.00,,BKN120,0.67,258.00,VWS V14.01,2013-07-15 20:53:00,
2013-07-15 16:58:00,80.7,76.5,30.05,NNE,13,6.0,10.0,87,0.00,,SCT050,0.67,373.00,VWS V14.01,2013-07-15 20:58:00,
2013-07-15 17:04:00,81.2,76.6,30.05,NNE,14,3.0,8.0,86,0.00,,SCT050,0.67,278.00,VWS V14.01,2013-07-15 21:04:00,
2013-07-15 17:09:00,81.5,76.9,30.05,North,360,4.0,8.0,86,0.00,,SCT050,0.67,399.00,VWS V14.01,2013-07-15 21:09:00,
2013-07-15 17:14:00,81.4,76.8,30.05,NNE,17,5.0,8.0,86,0.00,,SCT050,0.67,260.00,VWS V14.01,2013-07-15 21:14:00,
2013-07-15 17:19:00,82.0,77.4,30.04,NNE,15,5.0,9.0,86,0.00,,SCT050,0.67,543.00,VWS V14.01,2013-07-15 21:19:00,
2013-07-15 17:24:00,82.0,77.4,30.04,North,360,8.0,9.0,86,0.00,,BKN020,0.67,174.00,VWS V14.01,2013-07-15 21:24:00,
2013-07-15 17:29:00,81.7,77.1,30.04,NNE,16,3.0,9.0,86,0.00,,BKN020,0.67,244.00,VWS V14.01,2013-07-15 21:29:00,
2013-07-15 17:34:00,81.6,77.0,30.04,NNE,31,6.0,9.0,86,0.00,,BKN020,0.67,139.00,VWS V14.01,2013-07-15 21:34:00,
2013-07-15 17:39:00,81.7,77.1,30.04,NE,36,3.0,9.0,86,0.00,,BKN020,0.67,218.00,VWS V14.01,2013-07-15 21:39:00,
2013-07-15 17:44:00,82.3,77.7,30.03,NNE,22,8.0,10.0,86,0.00,,BKN020,0.67,229.00,VWS V14.01,2013-07-15 21:44:00,
2013-07-15 17:49:00,82.6,77.6,30.03,North,9,3.0,10.0,85,0.00,,BKN020,0.67,172.00,VWS V14.01,2013-07-15 21:49:00,
2013-07-15 17:55:00,82.4,75.6,30.03,NNE,31,7.0,15.0,80,0.00,,BKN020,0.67,181.00,VWS V14.01,2013-07-15 21:55:00,
2013-07-15 18:00:00,82.6,75.4,30.03,NE,34,8.0,15.0,79,0.00,,OVC055,0.67,199.00,VWS V14.01,2013-07-15 22:00:00,
2013-07-15 18:05:00,82.8,75.6,30.03,NNE,18,5.0,14.0,79,0.00,,OVC055,0.67,315.00,VWS V14.01,2013-07-15 22:05:00,
2013-07-15 18:10:00,83.0,75.8,30.03,NE,53,6.0,14.0,79,0.00,,OVC055,0.67,260.00,VWS V14.01,2013-07-15 22:10:00,
2013-07-15 18:15:00,82.9,75.7,30.03,ENE,65,7.0,14.0,79,0.00,,OVC055,0.67,272.00,VWS V14.01,2013-07-15 22:15:00,
2013-07-15 18:20:00,83.0,76.2,30.03,NE,47,8.0,14.0,80,0.00,,OVC055,0.67,260.00,VWS V14.01,2013-07-15 22:20:00,
2013-07-15 18:25:00,82.9,75.7,30.03,NE,50,8.0,14.0,79,0.00,,OVC055,0.67,207.00,VWS V14.01,2013-07-15 22:25:00,
2013-07-15 18:30:00,82.6,75.4,30.03,NE,42,7.0,14.0,79,0.00,,OVC055,0.67,158.00,VWS V14.01,2013-07-15 22:30:00,
2013-07-15 18:35:00,82.5,75.7,30.03,North,5,5.0,11.0,80,0.00,,OVC055,0.67,188.00,VWS V14.01,2013-07-15 22:35:00,
2013-07-15 18:40:00,82.4,75.6,30.03,ENE,71,9.0,15.0,80,0.00,,OVC055,0.67,139.00,VWS V14.01,2013-07-15 22:40:00,
2013-07-15 18:45:00,82.3,75.5,30.03,ENE,62,9.0,16.0,80,0.00,,OVC055,0.67,151.00,VWS V14.01,2013-07-15 22:45:00,
2013-07-15 18:50:00,82.3,75.1,30.03,ENE,78,5.0,16.0,79,0.00,,OVC055,0.67,148.00,VWS V14.01,2013-07-15 22:50:00,
2013-07-15 18:56:00,82.2,75.0,30.03,ENE,59,7.0,16.0,79,0.00,,OVC055,0.67,132.00,VWS V14.01,2013-07-15 22:56:00,
2013-07-15 19:01:00,82.0,74.8,30.03,East,94,10.0,10.0,79,0.00,,OVC033,0.67,113.00,VWS V14.01,2013-07-15 23:01:00,
2013-07-15 19:06:00,81.9,75.1,30.03,ENE,61,2.0,10.0,80,0.00,,OVC033,0.67,100.00,VWS V14.01,2013-07-15 23:06:00,
2013-07-15 19:11:00,81.8,75.0,30.03,NNE,31,5.0,10.0,80,0.00,,OVC033,0.67,93.00,VWS V14.01,2013-07-15 23:11:00,
2013-07-15 19:16:00,81.7,74.9,30.03,NE,51,6.0,12.0,80,0.00,,OVC033,0.67,83.00,VWS V14.01,2013-07-15 23:16:00,
2013-07-15 19:21:00,81.6,75.2,30.03,NE,39,3.0,12.0,81,0.00,,OVC033,0.67,74.00,VWS V14.01,2013-07-15 23:21:00,
2013-07-15 19:26:00,81.4,75.0,30.04,ENE,58,11.0,13.0,81,0.00,,OVC033,0.67,67.00,VWS V14.01,2013-07-15 23:26:00,
2013-07-15 19:31:00,81.3,74.9,30.04,ENE,76,5.0,10.0,81,0.00,,OVC033,0.67,60.00,VWS V14.01,2013-07-15 23:31:00,
2013-07-15 19:36:00,81.2,75.2,30.04,East,85,5.0,12.0,82,0.00,,OVC033,0.67,51.00,VWS V14.01,2013-07-15 23:36:00,
2013-07-15 19:42:00,81.0,75.0,30.05,NE,46,4.0,12.0,82,0.00,,OVC033,0.67,47.00,VWS V14.01,2013-07-15 23:42:00,
2013-07-15 19:47:00,80.9,74.9,30.05,ENE,64,5.0,12.0,82,0.00,,OVC033,0.67,40.00,VWS V14.01,2013-07-15 23:47:00,
2013-07-15 19:52:00,80.7,74.7,30.05,NNE,20,4.0,12.0,82,0.00,,OVC033,0.67,32.00,VWS V14.01,2013-07-15 23:52:00,
2013-07-15 19:58:00,80.7,74.7,30.05,NE,51,7.0,12.0,82,0.00,,OVC033,0.67,23.00,VWS V14.01,2013-07-15 23:58:00,
2013-07-15 20:03:00,80.7,75.1,30.05,ENE,69,8.0,8.0,83,0.00,,SCT033,0.67,14.00,VWS V14.01,2013-07-16 00:03:00,
2013-07-15 20:08:00,80.5,74.9,30.05,ENE,73,4.0,10.0,83,0.00,,SCT033,0.67,11.00,VWS V14.01,2013-07-16 00:08:00,
2013-07-15 20:13:00,80.5,74.9,30.05,NE,42,8.0,10.0,83,0.00,,SCT033,0.67,9.00,VWS V14.01,2013-07-16 00:13:00,
2013-07-15 20:19:00,80.3,74.7,30.06,ENE,60,4.0,13.0,83,0.00,,FEW033,0.67,5.00,VWS V14.01,2013-07-16 00:19:00,
2013-07-15 20:24:00,80.1,74.5,30.06,ENE,77,3.0,13.0,83,0.00,,FEW033,0.67,0.00,VWS V14.01,2013-07-16 00:24:00,
2013-07-15 20:30:00,79.8,74.5,30.07,ENE,59,5.0,13.0,84,0.00,,FEW033,0.67,0.00,VWS V14.01,2013-07-16 00:30:00,
2013-07-15 20:35:00,79.6,74.3,30.07,East,79,5.0,7.0,84,0.00,,FEW033,0.67,0.00,VWS V14.01,2013-07-16 00:35:00,
2013-07-15 20:40:00,79.4,74.5,30.07,East,96,5.0,10.0,85,0.00,,CLR,0.67,0.00,VWS V14.01,2013-07-16 00:40:00,
2013-07-15 20:46:00,79.2,74.3,30.07,East,88,3.0,10.0,85,0.00,,CLR,0.67,0.00,VWS V14.01,2013-07-16 00:46:00,
2013-07-15 20:51:00,79.1,74.6,30.07,East,89,5.0,13.0,86,0.00,,CLR,0.67,0.00,VWS V14.01,2013-07-16 00:51:00,
2013-07-15 20:56:00,79.1,74.6,30.07,ENE,64,3.0,13.0,86,0.00,,CLR,0.67,0.00,VWS V14.01,2013-07-16 00:56:00,
2013-07-15 21:01:00,78.9,74.4,30.07,East,89,6.0,6.0,86,0.00,,CLR,0.67,0.00,VWS V14.01,2013-07-16 01:01:00,
2013-07-15 21:06:00,78.9,74.0,30.07,East,88,5.0,13.0,85,0.00,,CLR,0.67,0.00,VWS V14.01,2013-07-16 01:06:00,
2013-07-15 21:12:00,78.9,74.0,30.08,East,82,3.0,13.0,85,0.00,,CLR,0.67,0.00,VWS V14.01,2013-07-16 01:12:00,
2013-07-15 21:17:00,78.7,74.2,30.08,NE,49,2.0,13.0,86,0.00,,CLR,0.67,0.00,VWS V14.01,2013-07-16 01:17:00,
2013-07-15 21:22:00,78.6,74.1,30.08,ENE,61,9.0,13.0,86,0.00,,CLR,0.67,0.00,VWS V14.01,2013-07-16 01:22:00,
2013-07-15 21:27:00,78.5,74.0,30.08,ENE,78,7.0,13.0,86,0.00,,CLR,0.67,0.00,VWS V14.01,2013-07-16 01:27:00,
2013-07-15 21:33:00,78.4,73.9,30.09,ENE,78,4.0,9.0,86,0.00,,CLR,0.67,0.00,VWS V14.01,2013-07-16 01:33:00,
2013-07-15 21:38:00,78.2,74.0,30.09,ENE,61,2.0,9.0,87,0.00,,CLR,0.67,0.00,VWS V14.01,2013-07-16 01:38:00,
2013-07-15 21:44:00,78.1,73.9,30.09,East,82,2.0,9.0,87,0.00,,CLR,0.67,0.00,VWS V14.01,2013-07-16 01:44:00,
2013-07-15 21:49:00,78.0,73.8,30.09,ENE,61,3.0,9.0,87,0.00,,CLR,0.67,0.00,VWS V14.01,2013-07-16 01:49:00,
2013-07-15 21:55:00,78.0,73.8,30.09,ENE,71,3.0,9.0,87,0.00,,CLR,0.67,0.00,VWS V14.01,2013-07-16 01:55:00,
2013-07-15 22:00:00,77.9,73.7,30.10,East,82,5.0,9.0,87,0.00,,CLR,0.67,0.00,VWS V14.01,2013-07-16 02:00:00,
2013-07-15 22:05:00,77.6,73.8,30.10,East,81,1.0,5.0,88,0.00,,CLR,0.67,0.00,VWS V14.01,2013-07-16 02:05:00,
2013-07-15 22:10:00,77.5,73.7,30.10,ENE,71,3.0,7.0,88,0.00,,CLR,0.67,0.00,VWS V14.01,2013-07-16 02:10:00,
2013-07-15 22:15:00,77.4,73.6,30.11,ENE,74,2.0,7.0,88,0.00,,CLR,0.67,0.00,VWS V14.01,2013-07-16 02:15:00,
2013-07-15 22:20:00,77.4,73.9,30.11,ENE,70,3.0,7.0,89,0.00,,CLR,0.67,0.00,VWS V14.01,2013-07-16 02:20:00,
2013-07-15 22:25:00,77.5,74.0,30.11,ENE,58,7.0,7.0,89,0.00,,CLR,0.67,0.00,VWS V14.01,2013-07-16 02:25:00,
2013-07-15 22:30:00,77.5,74.0,30.11,ENE,71,3.0,7.0,89,0.00,,CLR,0.67,0.00,VWS V14.01,2013-07-16 02:30:00,
2013-07-15 22:35:00,77.5,74.0,30.11,ENE,72,4.0,8.0,89,0.00,,CLR,0.67,0.00,VWS V14.01,2013-07-16 02:35:00,
2013-07-15 22:41:00,77.4,73.9,30.11,ENE,63,2.0,8.0,89,0.00,,CLR,0.67,0.00,VWS V14.01,2013-07-16 02:41:00,
2013-07-15 22:46:00,77.3,73.8,30.11,NE,50,3.0,8.0,89,0.00,,CLR,0.67,0.00,VWS V14.01,2013-07-16 02:46:00,
2013-07-15 22:51:00,77.3,73.8,30.12,East,87,6.0,8.0,89,0.00,,CLR,0.67,0.00,VWS V14.01,2013-07-16 02:51:00,
2013-07-15 22:56:00,77.1,73.6,30.12,ENE,70,3.0,8.0,89,0.00,,CLR,0.67,0.00,VWS V14.01,2013-07-16 02:56:00,
2013-07-15 23:01:00,77.0,73.8,30.12,ENE,64,3.0,4.0,90,0.00,,CLR,0.67,0.00,VWS V14.01,2013-07-16 03:01:00,
2013-07-15 23:07:00,76.9,73.8,30.12,ENE,75,2.0,7.0,90,0.00,,CLR,0.67,0.00,VWS V14.01,2013-07-16 03:07:00,
2013-07-15 23:12:00,76.9,73.8,30.12,ENE,65,2.0,7.0,90,0.00,,CLR,0.67,0.00,VWS V14.01,2013-07-16 03:12:00,
2013-07-15 23:17:00,76.8,73.7,30.13,ENE,74,4.0,7.0,90,0.00,,CLR,0.67,0.00,VWS V14.01,2013-07-16 03:17:00,
2013-07-15 23:22:00,76.7,73.9,30.13,ENE,78,3.0,7.0,91,0.00,,CLR,0.67,0.00,VWS V14.01,2013-07-16 03:22:00,
2013-07-15 23:27:00,76.7,73.9,30.13,East,80,2.0,8.0,91,0.00,,CLR,0.67,0.00,VWS V14.01,2013-07-16 03:27:00,
2013-07-15 23:32:00,76.5,73.7,30.13,ENE,69,3.0,4.0,91,0.00,,CLR,0.67,0.00,VWS V14.01,2013-07-16 03:32:00,
2013-07-15 23:37:00,76.5,73.7,30.13,ENE,72,2.0,6.0,91,0.00,,CLR,0.67,0.00,VWS V14.01,2013-07-16 03:37:00,
2013-07-15 23:42:00,76.4,73.9,30.13,ENE,78,5.0,9.0,92,0.00,,CLR,0.67,0.00,VWS V14.01,2013-07-16 03:42:00,
2013-07-15 23:47:00,76.4,73.9,30.13,NE,50,3.0,9.0,92,0.00,,CLR,0.67,0.00,VWS V14.01,2013-07-16 03:47:00,
2013-07-15 23:53:00,76.4,73.9,30.13,NE,53,4.0,9.0,92,0.00,,CLR,0.67,0.00,VWS V14.01,2013-07-16 03:53:00,
2013-07-15 23:58:00,76.4,73.9,30.13,East,79,5.0,9.0,92,0.00,,CLR,0.67,0.00,VWS V14.01,2013-07-16 03:58:00,